Погода в Виламоре

Португалия     37°06′14″N   8°07′18″W
В апреле 2022 года жителям России запретили посещать сайт meteo.paraplan.net по решению Генеральной прокуратуры. Аудитория сайта уменьшилась в 10 раз. Владельцы сайта не видят смысла в поддержке погодного сервера в таких условиях. Сайт будет закрыт в октябре.
темп.,
°C
ветер,
м/с
пор.,
м/с
влажн.,
%
обл.,
%
осадки,
мм/ч
давл.,
гПа
погр.,
м
29 сентября, чт
чт2901:00+18ссз8136819 0.0 1017655
04:00+17сз611761 0.0 1016614
07:00+16сз498715 0.0 1016546
10:00+19сз57684 0.0 1016898
13:00+22з676019 0.0 1014730
16:00+23зсз1012616 0.0 1012735
19:00+21зсз811697 0.0 1012798
22:00+19сз712800 0.0 1013635
30 сентября, пт
пт3001:00+18ссз813700 0.0 1013610
04:00+16ссз711770 0.0 1012498
07:00+16с510750 0.0 1013381
10:00+20с69520 0.0 1015677
13:00+23ссв234739 0.0 1016459
16:00+22юз555331 0.0 1015772
19:00+22юз235647 0.0 101639
22:00+20ссз56504 0.0 1018108
1 октября, сб
сб101:00+19с59530 0.0 1018174
04:00+19ссв48505 0.0 1018159
07:00+19св465192 0.0 1020184
10:00+21в5648100 0.0 1022341
13:00+22вюв6749100 0.0 1022610
16:00+22юв5649100 0.0 1021354
19:00+21юв115720 0.0 102011
22:00+21ссз12545 0.0 102212
2 октября, вс
вс201:00+20в45625 0.0 1022116
04:00+19св45725 0.0 1020155
07:00+19св47610 0.0 1020264
10:00+21всв68510 0.0 1020403
13:00+22вюв79600 0.0 1020472
16:00+23вюв56510 0.0 1018380
19:00+22в59760 0.0 1018229
22:00+21всв44745 0.0 101979
3 октября, пн
пн301:00+21в57761 0.0 1019156
04:00+20св33735 0.0 102060
07:00+20ссв22675 0.0 102026
10:00+22вюв456199 0.0 1021196
13:00+23вюв3358100 0.0 1021281
16:00+23вюв336270 0.0 1020241
19:00+22юз117273 0.0 102012
22:00+22сз337021 0.0 102028